Regional Weather Roundup
Issued by NWS

Home | Current Version | Previous Version | Graphics & Text | Print | Product List | Glossary On
Versions: 1 2 3 4 5 6 7 8 9 10 11 12 13 14 15 16 17 18 19 20 21 22 23 24 25 26 27 28 29 30 31 32 33 34 35 36 37 38 39 40 41 42 43 44 45 46 47 48 49 50
000
ASUS45 KCYS 240210
RWRWY

WYOMING REGIONAL WEATHER ROUNDUP
NATIONAL WEATHER SERVICE CHEYENNE WY
800 PM MDT THU MAR 23 2017

NOTE:  "FAIR" INDICATES FEW OR NO CLOUDS BELOW 12,000 FEET
WITH NO SIGNIFICANT WEATHER AND/OR OBSTRUCTIONS TO VISIBILITY.

WYZ001-240300-
YELLOWSTONE NATIONAL PARK

CITY           SKY/WX    TMP DP  RH WIND       PRES   REMARKS
LK YELLOWSTONE   N/A     33  21  61 CALM      29.98R
W YELLOWSTONE  NOT AVBL

$$
WYZ002>013-054>058-071-098>099-240300-
NORTHERN WYOMING

CITY           SKY/WX    TMP DP  RH WIND       PRES   REMARKS
JACKSON        PTCLDY    43  27  52 NW12      29.93R
CODY           CLOUDY    43  32  65 SW9       29.96R
GREYBULL       CLOUDY    47  34  60 NW8       29.91R
WORLAND        MOCLDY    45  36  70 W3        29.92R
SHERIDAN       CLOUDY    43  37  79 S7        29.95R
BUFFALO        CLOUDY    43  33  68 NW13G24   29.95R
GILLETTE       MOCLDY    40  32  73 VRB6      29.91R
HULETT         CLOUDY    37  36  93 NE8       29.93R WCI  31
NEWCASTLE      MOCLDY    45  30  57 NE18G26   29.82R

$$
WYZ014>020-022>026-101>103-240300-
CENTRAL WYOMING

CITY           SKY/WX    TMP DP  RH WIND       PRES   REMARKS
BIG PINEY      CLOUDY    35  31  85 N14       29.92R WCI  26
PINEDALE       FAIR      34  32  93 NW10      29.93R WCI  26
DUBOIS         MOCLDY    32  32 100 NW3       29.94R
LANDER         LGT RAIN  37  35  92 NW6       29.95R WCI  32
RIVERTON       LGT RAIN  37  36  96 NW9       29.96R WCI  30
CASPER         CLOUDY    39  33  79 NE17      29.93R WCI  30
DOUGLAS        CLOUDY    40  33  76 N13       29.91R WCI  32

$$
WYZ021-027>030-104>119-240300-
SOUTHERN WYOMING

CITY           SKY/WX    TMP DP  RH WIND       PRES   REMARKS
EVANSTON       CLOUDY    34  28  79 W10       29.97R WCI  26
KEMMERER         N/A     32  30  93 NW10      29.95R WCI  24
FORT BRIDGER   CLOUDY    37  37  99 W9        29.98R WCI  30
ROCK SPRINGS   CLOUDY    39  33  79 NE7       29.91R WCI  34
DIXON            N/A     44  36  74 N14       29.86R
RAWLINS        FAIR      36  30  79 N10       29.87R WCI  28
SARATOGA       MOCLDY    39  32  75 N8G20     29.86S WCI  34
LARAMIE        CLOUDY    40  30  67 N24G32    29.81R WCI  29
CHEYENNE       FAIR      41  36  82 N32G40    29.75R
TORRINGTON     FAIR      47  40  76 N25       29.76R
PINE BLUFFS    CLOUDY    45  43  93 N28G41    29.75R

$$



USA.gov is the U.S. government's official web portal to all federal, state and local government web resources and services.